STARLINK-2478

Last updated on Sat May 08 2021 00:02:05 GMT+0000 (Coordinated Universal Time)

1 48135U 21027AV 21127.58334491 -.00973415 00000-0 -19380-1 0 9996 2 48135 53.0477 192.5204 0001313 67.0462 163.4835 15.48930640 1769

Satellite not in orbit

STARLINK-2478